Time,TemperatureF,DewpointF,PressureIn,WindDirection,WindDirectionDegrees,WindSpeedMPH,WindSpeedGustMPH,Humidity,HourlyPrecipIn,Conditions,Clouds,dailyrainin,SoftwareType,DateUTC
2013-04-25 00:03:00,65.5,64.0,30.15,West,280,1.0,3.0,95,0.00,,,0.00,meteohub,2013-04-25 05:03:00,
2013-04-25 00:08:00,65.5,64.0,30.15,West,280,1.0,3.0,95,0.00,,,0.00,meteohub,2013-04-25 05:08:00,
2013-04-25 00:13:00,65.5,63.7,30.15,NW,320,0.0,3.0,94,0.00,,,0.00,meteohub,2013-04-25 05:13:00,
2013-04-25 00:18:00,65.3,63.5,30.15,NW,305,1.0,4.0,94,0.00,,,0.00,meteohub,2013-04-25 05:18:00,
2013-04-25 00:23:00,65.1,63.3,30.15,NW,305,1.0,4.0,94,0.00,,,0.00,meteohub,2013-04-25 05:23:00,
2013-04-25 00:28:00,65.1,63.3,30.15,WNW,295,2.0,4.0,94,0.00,,,0.00,meteohub,2013-04-25 05:28:00,
2013-04-25 00:34:00,65.1,63.3,30.15,WNW,284,1.0,4.0,94,0.00,,,0.00,meteohub,2013-04-25 05:34:00,
2013-04-25 00:39:00,64.9,63.1,30.15,WNW,284,0.0,4.0,94,0.00,,,0.00,meteohub,2013-04-25 05:39:00,
2013-04-25 00:44:00,64.9,63.1,30.15,WNW,284,0.0,4.0,94,0.00,,,0.00,meteohub,2013-04-25 05:44:00,
2013-04-25 00:49:00,64.9,63.1,30.15,WNW,284,0.0,2.0,94,0.00,,,0.00,meteohub,2013-04-25 05:49:00,
2013-04-25 00:54:00,64.8,63.0,30.15,WNW,299,0.0,2.0,94,0.00,,,0.00,meteohub,2013-04-25 05:54:00,
2013-04-25 00:59:00,64.6,62.8,30.14,SW,235,1.0,3.0,94,0.00,,,0.00,meteohub,2013-04-25 05:59:00,
2013-04-25 01:04:00,64.6,62.4,30.14,WNW,300,0.0,3.0,93,0.00,,,0.00,meteohub,2013-04-25 06:04:00,
2013-04-25 01:09:00,64.2,62.2,30.14,WNW,287,0.0,3.0,93,0.00,,,0.00,meteohub,2013-04-25 06:09:00,
2013-04-25 01:14:00,64.2,62.4,30.14,West,273,0.0,3.0,94,0.00,,,0.00,meteohub,2013-04-25 06:14:00,
2013-04-25 01:19:00,64.0,62.2,30.14,North,4,2.0,3.0,94,0.00,,,0.00,meteohub,2013-04-25 06:19:00,
2013-04-25 01:24:00,64.0,62.2,30.14,West,280,1.0,3.0,94,0.00,,,0.00,meteohub,2013-04-25 06:24:00,
2013-04-25 01:30:00,63.9,62.1,30.14,West,269,0.0,4.0,94,0.00,,,0.00,meteohub,2013-04-25 06:30:00,
2013-04-25 01:35:00,63.9,62.1,30.13,SW,221,0.0,6.0,94,0.00,,,0.00,meteohub,2013-04-25 06:35:00,
2013-04-25 01:40:00,63.9,62.1,30.14,SE,128,1.0,6.0,94,0.00,,,0.00,meteohub,2013-04-25 06:40:00,
2013-04-25 01:45:00,63.9,62.1,30.14,NW,324,1.0,6.0,94,0.00,,,0.00,meteohub,2013-04-25 06:45:00,
2013-04-25 01:50:00,63.9,62.1,30.14,West,280,0.0,6.0,94,0.00,,,0.00,meteohub,2013-04-25 06:50:00,
2013-04-25 01:55:00,63.9,62.1,30.14,NW,308,0.0,6.0,94,0.00,,,0.00,meteohub,2013-04-25 06:55:00,
2013-04-25 02:00:00,63.9,62.1,30.14,NW,307,0.0,6.0,94,0.00,,,0.00,meteohub,2013-04-25 07:00:00,
2013-04-25 02:05:00,63.7,61.9,30.14,WSW,255,0.0,4.0,94,0.00,,,0.00,meteohub,2013-04-25 07:05:00,
2013-04-25 02:10:00,63.5,61.7,30.14,SSW,210,0.0,3.0,94,0.00,,,0.00,meteohub,2013-04-25 07:10:00,
2013-04-25 02:15:00,63.3,61.5,30.14,SE,133,0.0,3.0,94,0.00,,,0.00,meteohub,2013-04-25 07:15:00,
2013-04-25 02:21:00,63.1,61.3,30.14,NNW,331,0.0,3.0,94,0.00,,,0.00,meteohub,2013-04-25 07:21:00,
2013-04-25 02:26:00,63.1,61.2,30.14,NNW,335,0.0,3.0,93,0.00,,,0.00,meteohub,2013-04-25 07:26:00,
2013-04-25 02:31:00,63.0,61.0,30.14,WNW,293,0.0,3.0,93,0.00,,,0.00,meteohub,2013-04-25 07:31:00,
2013-04-25 02:36:00,63.0,61.0,30.14,NW,315,2.0,2.0,93,0.00,,,0.00,meteohub,2013-04-25 07:36:00,
2013-04-25 02:41:00,62.6,60.6,30.14,WSW,245,0.0,4.0,93,0.00,,,0.00,meteohub,2013-04-25 07:41:00,
2013-04-25 02:46:00,62.4,60.4,30.14,West,270,0.0,4.0,93,0.00,,,0.00,meteohub,2013-04-25 07:46:00,
2013-04-25 02:51:00,62.4,60.4,30.14,North,350,1.0,4.0,93,0.00,,,0.00,meteohub,2013-04-25 07:51:00,
2013-04-25 02:56:00,62.2,59.9,30.14,WNW,293,2.0,3.0,92,0.00,,,0.00,meteohub,2013-04-25 07:56:00,
2013-04-25 03:01:00,61.9,59.5,30.15,WNW,287,1.0,4.0,92,0.00,,,0.00,meteohub,2013-04-25 08:01:00,
2013-04-25 03:06:00,61.5,59.2,30.15,West,277,0.0,4.0,92,0.00,,,0.00,meteohub,2013-04-25 08:06:00,
2013-04-25 03:11:00,61.2,58.8,30.15,West,278,0.0,4.0,92,0.00,,,0.00,meteohub,2013-04-25 08:11:00,
2013-04-25 03:17:00,61.2,58.8,30.15,NW,312,0.0,4.0,92,0.00,,,0.00,meteohub,2013-04-25 08:17:00,
2013-04-25 03:22:00,61.0,58.6,30.15,West,276,0.0,4.0,92,0.00,,,0.00,meteohub,2013-04-25 08:22:00,
2013-04-25 03:27:00,60.6,58.3,30.15,West,276,0.0,4.0,92,0.00,,,0.00,meteohub,2013-04-25 08:27:00,
2013-04-25 03:32:00,60.4,58.1,30.15,West,276,0.0,4.0,92,0.00,,,0.00,meteohub,2013-04-25 08:32:00,
2013-04-25 03:37:00,60.3,57.9,30.15,WNW,287,1.0,5.0,92,0.00,,,0.00,meteohub,2013-04-25 08:37:00,
2013-04-25 03:42:00,60.1,58.1,30.15,West,272,4.0,5.0,93,0.00,,,0.00,meteohub,2013-04-25 08:42:00,
2013-04-25 03:47:00,60.1,58.1,30.15,WNW,283,2.0,5.0,93,0.00,,,0.00,meteohub,2013-04-25 08:47:00,
2013-04-25 03:52:00,60.1,58.1,30.15,WSW,258,1.0,5.0,93,0.00,,,0.00,meteohub,2013-04-25 08:52:00,
2013-04-25 03:57:00,59.9,57.9,30.16,WSW,241,0.0,6.0,93,0.00,,,0.00,meteohub,2013-04-25 08:57:00,
2013-04-25 04:02:00,59.7,57.7,30.16,WNW,288,2.0,6.0,93,0.00,,,0.00,meteohub,2013-04-25 09:02:00,
2013-04-25 04:07:00,59.7,57.7,30.15,WNW,289,0.0,6.0,93,0.00,,,0.00,meteohub,2013-04-25 09:07:00,
2013-04-25 04:12:00,59.7,57.7,30.16,WNW,289,0.0,3.0,93,0.00,,,0.00,meteohub,2013-04-25 09:12:00,
2013-04-25 04:17:00,59.7,57.7,30.15,NW,307,1.0,3.0,93,0.00,,,0.00,meteohub,2013-04-25 09:17:00,
2013-04-25 04:22:00,59.7,57.7,30.15,ENE,71,1.0,4.0,93,0.00,,,0.00,meteohub,2013-04-25 09:22:00,
2013-04-25 04:27:00,59.7,57.7,30.15,NE,36,0.0,4.0,93,0.00,,,0.00,meteohub,2013-04-25 09:27:00,
2013-04-25 04:32:00,59.7,57.7,30.16,NNE,25,1.0,4.0,93,0.00,,,0.00,meteohub,2013-04-25 09:32:00,
2013-04-25 04:37:00,59.7,57.7,30.16,NNE,25,1.0,3.0,93,0.00,,,0.00,meteohub,2013-04-25 09:37:00,
2013-04-25 04:42:00,59.7,57.7,30.16,West,267,0.0,2.0,93,0.00,,,0.00,meteohub,2013-04-25 09:42:00,
2013-04-25 04:47:00,59.7,57.7,30.16,NE,39,2.0,2.0,93,0.00,,,0.00,meteohub,2013-04-25 09:47:00,
2013-04-25 04:52:00,59.5,57.6,30.16,NNE,24,1.0,5.0,93,0.00,,,0.00,meteohub,2013-04-25 09:52:00,
2013-04-25 04:57:00,59.5,57.6,30.17,WNW,285,1.0,5.0,93,0.00,,,0.00,meteohub,2013-04-25 09:57:00,
2013-04-25 05:02:00,59.5,57.6,30.17,NNW,343,1.0,5.0,93,0.00,,,0.00,meteohub,2013-04-25 10:02:00,
2013-04-25 05:07:00,59.4,57.0,30.17,NW,312,2.0,5.0,92,0.00,,,0.00,meteohub,2013-04-25 10:07:00,
2013-04-25 05:12:00,59.4,57.4,30.17,WSW,249,2.0,5.0,93,0.00,,,0.00,meteohub,2013-04-25 10:12:00,
2013-04-25 05:17:00,59.4,57.4,30.17,WNW,293,1.0,5.0,93,0.00,,,0.00,meteohub,2013-04-25 10:17:00,
2013-04-25 05:22:00,59.2,57.2,30.17,ENE,75,1.0,4.0,93,0.00,,,0.00,meteohub,2013-04-25 10:22:00,
2013-04-25 05:27:00,59.2,56.8,30.17,NNE,33,0.0,4.0,92,0.00,,,0.00,meteohub,2013-04-25 10:27:00,
2013-04-25 05:32:00,59.0,56.7,30.18,SW,224,1.0,5.0,92,0.00,,,0.00,meteohub,2013-04-25 10:32:00,
2013-04-25 05:37:00,59.0,56.7,30.18,SSW,193,0.0,5.0,92,0.00,,,0.00,meteohub,2013-04-25 10:37:00,
2013-04-25 05:42:00,59.0,56.7,30.18,North,359,0.0,5.0,92,0.00,,,0.00,meteohub,2013-04-25 10:42:00,
2013-04-25 05:47:00,59.0,56.7,30.18,East,79,2.0,3.0,92,0.00,,,0.00,meteohub,2013-04-25 10:47:00,
2013-04-25 05:52:00,59.0,56.7,30.19,NNW,330,1.0,2.0,92,0.00,,,0.00,meteohub,2013-04-25 10:52:00,
2013-04-25 05:57:00,58.8,56.5,30.19,NNE,18,1.0,3.0,92,0.00,,,0.00,meteohub,2013-04-25 10:57:00,
2013-04-25 06:02:00,58.8,56.1,30.19,WSW,243,0.0,4.0,91,0.00,,,0.00,meteohub,2013-04-25 11:02:00,
2013-04-25 06:07:00,58.6,55.9,30.20,East,97,0.0,4.0,91,0.00,,,0.00,meteohub,2013-04-25 11:07:00,
2013-04-25 06:12:00,58.6,55.9,30.20,East,97,2.0,4.0,91,0.00,,,0.00,meteohub,2013-04-25 11:12:00,
2013-04-25 06:18:00,58.6,55.9,30.20,NW,314,0.0,2.0,91,0.00,,,0.00,meteohub,2013-04-25 11:18:00,
2013-04-25 06:23:00,58.6,55.9,30.20,WNW,284,0.0,3.0,91,0.00,,,0.00,meteohub,2013-04-25 11:23:00,
2013-04-25 06:28:00,58.5,55.8,30.20,ENE,73,1.0,4.0,91,0.00,,,0.00,meteohub,2013-04-25 11:28:00,
2013-04-25 06:33:00,58.5,55.6,30.20,West,276,0.0,4.0,90,0.00,,,0.00,meteohub,2013-04-25 11:33:00,
2013-04-25 06:38:00,58.3,55.4,30.21,NW,309,0.0,4.0,90,0.00,,,0.00,meteohub,2013-04-25 11:38:00,
2013-04-25 06:43:00,58.3,55.6,30.21,NW,310,0.0,2.0,91,0.00,,,0.00,meteohub,2013-04-25 11:43:00,
2013-04-25 06:48:00,58.3,55.6,30.21,NW,305,0.0,3.0,91,0.00,,,0.00,meteohub,2013-04-25 11:48:00,
2013-04-25 06:53:00,58.3,55.6,30.21,NW,319,0.0,3.0,91,0.00,,,0.00,meteohub,2013-04-25 11:53:00,
2013-04-25 06:58:00,58.3,55.6,30.21,WSW,257,2.0,3.0,91,0.00,,,0.00,meteohub,2013-04-25 11:58:00,
2013-04-25 07:03:00,58.1,55.4,30.22,WNW,299,2.0,2.0,91,0.00,,,0.00,meteohub,2013-04-25 12:03:00,
2013-04-25 07:09:00,57.9,55.2,30.22,WNW,284,1.0,4.0,91,0.00,,,0.00,meteohub,2013-04-25 12:09:00,
2013-04-25 07:14:00,57.9,55.2,30.21,West,277,0.0,4.0,91,0.00,,,0.00,meteohub,2013-04-25 12:14:00,
2013-04-25 07:19:00,57.9,55.2,30.22,NNE,16,1.0,4.0,91,0.00,,,0.00,meteohub,2013-04-25 12:19:00,
2013-04-25 07:24:00,57.9,55.2,30.22,WNW,285,0.0,3.0,91,0.00,,,0.00,meteohub,2013-04-25 12:24:00,
2013-04-25 07:29:00,57.9,55.2,30.22,WNW,285,0.0,3.0,91,0.00,,,0.00,meteohub,2013-04-25 12:29:00,
2013-04-25 07:34:00,58.1,55.4,30.22,WNW,285,0.0,3.0,91,0.00,,,0.00,meteohub,2013-04-25 12:34:00,
2013-04-25 07:39:00,58.3,55.4,30.22,South,189,0.0,1.0,90,0.00,,,0.00,meteohub,2013-04-25 12:39:00,
2013-04-25 07:44:00,58.3,55.0,30.22,WNW,291,3.0,3.0,89,0.00,,,0.00,meteohub,2013-04-25 12:44:00,
2013-04-25 07:49:00,58.3,55.0,30.22,NE,52,2.0,4.0,89,0.00,,,0.00,meteohub,2013-04-25 12:49:00,
2013-04-25 07:54:00,58.3,55.0,30.22,South,191,0.0,4.0,89,0.00,,,0.00,meteohub,2013-04-25 12:54:00,
2013-04-25 08:00:00,58.5,55.6,30.23,ENE,58,1.0,4.0,90,0.00,,,0.00,meteohub,2013-04-25 13:00:00,
2013-04-25 08:05:00,58.5,55.6,30.23,NNW,332,1.0,4.0,90,0.00,,,0.00,meteohub,2013-04-25 13:05:00,
2013-04-25 08:10:00,58.6,55.4,30.23,NW,324,0.0,6.0,89,0.00,,,0.00,meteohub,2013-04-25 13:10:00,
2013-04-25 08:15:00,58.6,55.4,30.23,NE,39,2.0,6.0,89,0.00,,,0.00,meteohub,2013-04-25 13:15:00,
2013-04-25 08:20:00,58.8,55.6,30.23,NNE,27,0.0,8.0,89,0.00,,,0.00,meteohub,2013-04-25 13:20:00,
2013-04-25 08:25:00,59.0,55.4,30.23,North,4,0.0,8.0,88,0.00,,,0.00,meteohub,2013-04-25 13:25:00,
2013-04-25 08:30:00,59.2,55.6,30.24,NNW,339,1.0,4.0,88,0.00,,,0.00,meteohub,2013-04-25 13:30:00,
2013-04-25 08:35:00,59.5,55.6,30.23,West,264,0.0,4.0,87,0.00,,,0.00,meteohub,2013-04-25 13:35:00,
2013-04-25 08:40:00,59.7,55.8,30.24,WNW,289,0.0,5.0,87,0.00,,,0.00,meteohub,2013-04-25 13:40:00,
2013-04-25 08:45:00,59.9,55.9,30.24,WSW,241,1.0,5.0,87,0.00,,,0.00,meteohub,2013-04-25 13:45:00,
2013-04-25 08:51:00,60.3,56.3,30.24,West,272,0.0,5.0,87,0.00,,,0.00,meteohub,2013-04-25 13:51:00,
2013-04-25 08:56:00,60.4,56.3,30.25,North,359,1.0,5.0,86,0.00,,,0.00,meteohub,2013-04-25 13:56:00,
2013-04-25 09:01:00,60.6,56.5,30.25,West,271,1.0,5.0,86,0.00,,,0.00,meteohub,2013-04-25 14:01:00,
2013-04-25 09:06:00,60.8,55.9,30.25,NE,44,2.0,3.0,84,0.00,,,0.00,meteohub,2013-04-25 14:06:00,
2013-04-25 09:11:00,60.6,55.8,30.25,ESE,103,1.0,4.0,84,0.00,,,0.00,meteohub,2013-04-25 14:11:00,
2013-04-25 09:16:00,61.0,56.5,30.25,North,8,0.0,6.0,85,0.00,,,0.00,meteohub,2013-04-25 14:16:00,
2013-04-25 09:21:00,61.0,56.5,30.25,NW,316,0.0,6.0,85,0.00,,,0.00,meteohub,2013-04-25 14:21:00,
2013-04-25 09:26:00,61.2,56.3,30.26,West,266,1.0,5.0,84,0.00,,,0.00,meteohub,2013-04-25 14:26:00,
2013-04-25 09:31:00,61.3,56.5,30.26,SW,223,0.0,3.0,84,0.00,,,0.00,meteohub,2013-04-25 14:31:00,
2013-04-25 09:37:00,61.9,56.7,30.27,NNE,19,2.0,4.0,83,0.00,,,0.00,meteohub,2013-04-25 14:37:00,
2013-04-25 09:42:00,62.2,57.0,30.27,WNW,286,5.0,5.0,83,0.00,,,0.00,meteohub,2013-04-25 14:42:00,
2013-04-25 09:47:00,61.7,56.8,30.26,WSW,256,1.0,6.0,84,0.00,,,0.00,meteohub,2013-04-25 14:47:00,
2013-04-25 09:52:00,62.2,57.4,30.26,West,280,0.0,6.0,84,0.00,,,0.00,meteohub,2013-04-25 14:52:00,
2013-04-25 09:57:00,62.8,57.6,30.27,WNW,297,1.0,6.0,83,0.00,,,0.00,meteohub,2013-04-25 14:57:00,
2013-04-25 10:02:00,62.8,56.8,30.27,WSW,255,0.0,3.0,81,0.00,,,0.00,meteohub,2013-04-25 15:02:00,
2013-04-25 10:07:00,62.8,57.6,30.27,WSW,253,0.0,5.0,83,0.00,,,0.00,meteohub,2013-04-25 15:07:00,
2013-04-25 10:12:00,63.1,57.6,30.28,West,276,5.0,6.0,82,0.00,,,0.00,meteohub,2013-04-25 15:12:00,
2013-04-25 10:17:00,62.8,56.8,30.28,West,269,4.0,7.0,81,0.00,,,0.00,meteohub,2013-04-25 15:17:00,
2013-04-25 10:22:00,63.3,58.1,30.28,West,266,4.0,7.0,83,0.00,,,0.00,meteohub,2013-04-25 15:22:00,
2013-04-25 10:27:00,64.0,57.4,30.27,ENE,57,1.0,7.0,79,0.00,,,0.00,meteohub,2013-04-25 15:27:00,
2013-04-25 10:32:00,64.6,57.9,30.27,NW,304,2.0,6.0,79,0.00,,,0.00,meteohub,2013-04-25 15:32:00,
2013-04-25 10:37:00,64.9,57.9,30.27,West,260,1.0,5.0,78,0.00,,,0.00,meteohub,2013-04-25 15:37:00,
2013-04-25 10:42:00,65.7,58.3,30.27,WNW,296,4.0,5.0,77,0.00,,,0.00,meteohub,2013-04-25 15:42:00,
2013-04-25 10:47:00,65.5,58.5,30.27,NW,319,0.0,5.0,78,0.00,,,0.00,meteohub,2013-04-25 15:47:00,
2013-04-25 10:52:00,65.7,58.3,30.27,WSW,245,0.0,5.0,77,0.00,,,0.00,meteohub,2013-04-25 15:52:00,
2013-04-25 10:57:00,66.0,58.6,30.27,WNW,297,2.0,5.0,77,0.00,,,0.00,meteohub,2013-04-25 15:57:00,
2013-04-25 11:02:00,66.7,59.4,30.27,North,4,1.0,5.0,77,0.00,,,0.00,meteohub,2013-04-25 16:02:00,
2013-04-25 11:07:00,67.6,59.7,30.27,West,269,5.0,7.0,76,0.00,,,0.00,meteohub,2013-04-25 16:07:00,
2013-04-25 11:12:00,67.3,59.0,30.27,WSW,258,2.0,7.0,75,0.00,,,0.00,meteohub,2013-04-25 16:12:00,
2013-04-25 11:17:00,67.5,59.2,30.27,West,276,2.0,7.0,75,0.00,,,0.00,meteohub,2013-04-25 16:17:00,
2013-04-25 11:22:00,67.8,59.5,30.27,West,278,3.0,7.0,75,0.00,,,0.00,meteohub,2013-04-25 16:22:00,
2013-04-25 11:27:00,67.6,59.4,30.27,West,268,4.0,6.0,75,0.00,,,0.00,meteohub,2013-04-25 16:27:00,
2013-04-25 11:32:00,67.6,59.0,30.27,WNW,282,5.0,6.0,74,0.00,,,0.00,meteohub,2013-04-25 16:32:00,
2013-04-25 11:37:00,67.6,59.7,30.27,West,259,4.0,8.0,76,0.00,,,0.00,meteohub,2013-04-25 16:37:00,
2013-04-25 11:42:00,68.0,60.8,30.27,West,265,6.0,8.0,78,0.00,,,0.00,meteohub,2013-04-25 16:42:00,
2013-04-25 11:47:00,68.7,60.4,30.27,WNW,299,4.0,8.0,75,0.00,,,0.00,meteohub,2013-04-25 16:47:00,
2013-04-25 11:52:00,68.7,60.1,30.26,West,280,5.0,8.0,74,0.00,,,0.00,meteohub,2013-04-25 16:52:00,
2013-04-25 11:57:00,69.4,61.5,30.26,NE,44,2.0,8.0,76,0.00,,,0.00,meteohub,2013-04-25 16:57:00,
2013-04-25 12:02:00,70.3,60.8,30.26,SW,230,1.0,8.0,72,0.00,,,0.00,meteohub,2013-04-25 17:02:00,
2013-04-25 12:07:00,70.9,60.6,30.26,West,279,3.0,6.0,70,0.00,,,0.00,meteohub,2013-04-25 17:07:00,
2013-04-25 12:12:00,71.2,60.6,30.26,NE,35,2.0,7.0,69,0.00,,,0.00,meteohub,2013-04-25 17:12:00,
2013-04-25 12:17:00,71.8,61.0,30.26,NW,313,1.0,7.0,69,0.00,,,0.00,meteohub,2013-04-25 17:17:00,
2013-04-25 12:22:00,71.8,61.0,30.26,WNW,287,1.0,7.0,69,0.00,,,0.00,meteohub,2013-04-25 17:22:00,
2013-04-25 12:27:00,72.0,60.8,30.26,West,276,1.0,6.0,68,0.00,,,0.00,meteohub,2013-04-25 17:27:00,
2013-04-25 12:32:00,71.8,61.0,30.26,WNW,298,5.0,8.0,69,0.00,,,0.00,meteohub,2013-04-25 17:32:00,
2013-04-25 12:37:00,72.3,61.5,30.25,West,261,5.0,8.0,69,0.00,,,0.00,meteohub,2013-04-25 17:37:00,
2013-04-25 12:42:00,72.5,59.5,30.26,WNW,292,7.0,8.0,64,0.00,,,0.00,meteohub,2013-04-25 17:42:00,
2013-04-25 12:47:00,72.3,60.3,30.25,North,354,2.0,9.0,66,0.00,,,0.00,meteohub,2013-04-25 17:47:00,
2013-04-25 12:52:00,72.9,60.8,30.25,NNE,31,1.0,9.0,66,0.00,,,0.00,meteohub,2013-04-25 17:52:00,
2013-04-25 12:57:00,73.2,60.3,30.25,East,80,2.0,11.0,64,0.00,,,0.00,meteohub,2013-04-25 17:57:00,
2013-04-25 13:02:00,73.2,60.8,30.25,WSW,257,4.0,11.0,65,0.00,,,0.00,meteohub,2013-04-25 18:02:00,
2013-04-25 13:07:00,73.6,61.2,30.25,NE,50,1.0,7.0,65,0.00,,,0.00,meteohub,2013-04-25 18:07:00,
2013-04-25 13:12:00,73.8,59.5,30.25,West,278,3.0,7.0,61,0.00,,,0.00,meteohub,2013-04-25 18:12:00,
2013-04-25 13:17:00,73.9,61.3,30.25,NE,41,3.0,10.0,65,0.00,,,0.00,meteohub,2013-04-25 18:17:00,
2013-04-25 13:22:00,74.5,60.1,30.25,WNW,296,1.0,10.0,61,0.00,,,0.00,meteohub,2013-04-25 18:22:00,
2013-04-25 13:27:00,73.9,59.2,30.25,WNW,284,4.0,6.0,60,0.00,,,0.00,meteohub,2013-04-25 18:27:00,
2013-04-25 13:32:00,73.8,60.8,30.25,NW,305,2.0,10.0,64,0.00,,,0.00,meteohub,2013-04-25 18:32:00,
2013-04-25 13:37:00,74.1,59.4,30.25,NNE,30,5.0,10.0,60,0.00,,,0.00,meteohub,2013-04-25 18:37:00,
2013-04-25 13:42:00,74.5,59.2,30.25,NNE,26,3.0,10.0,59,0.00,,,0.00,meteohub,2013-04-25 18:42:00,
2013-04-25 13:47:00,74.5,59.7,30.25,NW,320,3.0,7.0,60,0.00,,,0.00,meteohub,2013-04-25 18:47:00,
2013-04-25 13:52:00,74.8,60.1,30.24,South,191,0.0,7.0,60,0.00,,,0.00,meteohub,2013-04-25 18:52:00,
2013-04-25 13:57:00,75.7,58.5,30.24,WSW,247,2.0,7.0,55,0.00,,,0.00,meteohub,2013-04-25 18:57:00,
2013-04-25 14:02:00,75.7,58.5,30.24,ESE,116,0.0,6.0,55,0.00,,,0.00,meteohub,2013-04-25 19:02:00,
2013-04-25 14:07:00,75.9,60.1,30.24,SSE,149,3.0,4.0,58,0.00,,,0.00,meteohub,2013-04-25 19:07:00,
2013-04-25 14:12:00,75.9,57.0,30.24,NW,320,2.0,4.0,52,0.00,,,0.00,meteohub,2013-04-25 19:12:00,
2013-04-25 14:17:00,75.7,57.4,30.24,WNW,287,2.0,6.0,53,0.00,,,0.00,meteohub,2013-04-25 19:17:00,
2013-04-25 14:22:00,75.7,57.9,30.24,West,274,3.0,8.0,54,0.00,,,0.00,meteohub,2013-04-25 19:22:00,
2013-04-25 14:27:00,75.6,58.8,30.24,NW,310,1.0,8.0,56,0.00,,,0.00,meteohub,2013-04-25 19:27:00,
2013-04-25 14:32:00,75.9,59.5,30.23,ENE,71,1.0,8.0,57,0.00,,,0.00,meteohub,2013-04-25 19:32:00,
2013-04-25 14:37:00,75.9,59.2,30.24,SW,231,1.0,9.0,56,0.00,,,0.00,meteohub,2013-04-25 19:37:00,
2013-04-25 14:42:00,76.1,58.3,30.23,WNW,283,0.0,9.0,54,0.00,,,0.00,meteohub,2013-04-25 19:42:00,
2013-04-25 14:47:00,76.3,57.4,30.23,NNE,26,2.0,9.0,52,0.00,,,0.00,meteohub,2013-04-25 19:47:00,
2013-04-25 14:52:00,76.1,56.7,30.23,NE,38,5.0,5.0,51,0.00,,,0.00,meteohub,2013-04-25 19:52:00,
2013-04-25 14:57:00,76.5,58.6,30.23,West,278,2.0,6.0,54,0.00,,,0.00,meteohub,2013-04-25 19:57:00,
2013-04-25 15:02:00,76.5,55.9,30.23,WNW,283,3.0,6.0,49,0.00,,,0.00,meteohub,2013-04-25 20:02:00,
2013-04-25 15:07:00,75.2,55.2,30.23,West,275,5.0,10.0,50,0.00,,,0.00,meteohub,2013-04-25 20:07:00,
2013-04-25 15:12:00,75.0,56.7,30.22,NW,326,1.0,10.0,53,0.00,,,0.00,meteohub,2013-04-25 20:12:00,
2013-04-25 15:17:00,74.8,56.1,30.22,West,277,8.0,10.0,52,0.00,,,0.00,meteohub,2013-04-25 20:17:00,
2013-04-25 15:22:00,75.4,57.6,30.22,West,270,1.0,9.0,54,0.00,,,0.00,meteohub,2013-04-25 20:22:00,
2013-04-25 15:27:00,75.9,56.5,30.22,NNW,341,1.0,9.0,51,0.00,,,0.00,meteohub,2013-04-25 20:27:00,
2013-04-25 15:32:00,76.6,56.1,30.22,NE,43,6.0,9.0,49,0.00,,,0.00,meteohub,2013-04-25 20:32:00,
2013-04-25 15:37:00,76.8,55.6,30.22,ENE,58,2.0,6.0,48,0.00,,,0.00,meteohub,2013-04-25 20:37:00,
2013-04-25 15:42:00,76.8,57.4,30.23,WSW,246,0.0,6.0,51,0.00,,,0.00,meteohub,2013-04-25 20:42:00,
2013-04-25 15:47:00,76.6,57.7,30.23,West,276,3.0,6.0,52,0.00,,,0.00,meteohub,2013-04-25 20:47:00,
2013-04-25 15:52:00,76.5,55.9,30.22,WSW,244,1.0,6.0,49,0.00,,,0.00,meteohub,2013-04-25 20:52:00,
2013-04-25 15:57:00,76.8,57.4,30.22,NW,312,0.0,6.0,51,0.00,,,0.00,meteohub,2013-04-25 20:57:00,
2013-04-25 16:02:00,77.0,55.2,30.22,WNW,287,3.0,4.0,47,0.00,,,0.00,meteohub,2013-04-25 21:02:00,
2013-04-25 16:07:00,76.1,53.8,30.22,WSW,241,4.0,7.0,46,0.00,,,0.00,meteohub,2013-04-25 21:07:00,
2013-04-25 16:12:00,75.0,55.6,30.22,NW,326,2.0,8.0,51,0.00,,,0.00,meteohub,2013-04-25 21:12:00,
2013-04-25 16:17:00,75.7,55.8,30.23,West,264,2.0,10.0,50,0.00,,,0.00,meteohub,2013-04-25 21:17:00,
2013-04-25 16:22:00,75.7,56.3,30.23,WNW,289,3.0,10.0,51,0.00,,,0.00,meteohub,2013-04-25 21:22:00,
2013-04-25 16:27:00,75.9,55.9,30.23,WSW,251,1.0,9.0,50,0.00,,,0.00,meteohub,2013-04-25 21:27:00,
2013-04-25 16:32:00,76.1,55.6,30.23,West,260,1.0,9.0,49,0.00,,,0.00,meteohub,2013-04-25 21:32:00,
2013-04-25 16:37:00,76.5,55.4,30.23,NE,56,1.0,5.0,48,0.00,,,0.00,meteohub,2013-04-25 21:37:00,
2013-04-25 16:42:00,75.7,54.7,30.23,WNW,291,2.0,5.0,48,0.00,,,0.00,meteohub,2013-04-25 21:42:00,
2013-04-25 16:47:00,75.7,53.4,30.23,East,89,1.0,8.0,46,0.00,,,0.00,meteohub,2013-04-25 21:47:00,
2013-04-25 16:52:00,75.9,53.1,30.23,SW,219,1.0,8.0,45,0.00,,,0.00,meteohub,2013-04-25 21:52:00,
2013-04-25 16:57:00,76.1,52.0,30.23,SSE,154,1.0,5.0,43,0.00,,,0.00,meteohub,2013-04-25 21:57:00,
2013-04-25 17:02:00,76.3,51.4,30.23,SSE,151,0.0,4.0,42,0.00,,,0.00,meteohub,2013-04-25 22:02:00,
2013-04-25 17:07:00,76.5,51.1,30.23,SW,233,2.0,5.0,41,0.00,,,0.00,meteohub,2013-04-25 22:07:00,
2013-04-25 17:12:00,76.3,50.2,30.23,East,87,0.0,5.0,40,0.00,,,0.00,meteohub,2013-04-25 22:12:00,
2013-04-25 17:17:00,76.5,48.9,30.23,North,8,2.0,5.0,38,0.00,,,0.00,meteohub,2013-04-25 22:17:00,
2013-04-25 17:22:00,76.6,49.1,30.24,North,359,1.0,5.0,38,0.00,,,0.00,meteohub,2013-04-25 22:22:00,
2013-04-25 17:27:00,76.6,49.8,30.23,ENE,66,0.0,3.0,39,0.00,,,0.00,meteohub,2013-04-25 22:27:00,
2013-04-25 17:32:00,76.6,50.5,30.23,NNE,16,0.0,3.0,40,0.00,,,0.00,meteohub,2013-04-25 22:32:00,
2013-04-25 17:37:00,76.8,47.8,30.23,NE,43,0.0,3.0,36,0.00,,,0.00,meteohub,2013-04-25 22:37:00,
2013-04-25 17:42:00,76.6,47.7,30.23,East,89,0.0,3.0,36,0.00,,,0.00,meteohub,2013-04-25 22:42:00,
2013-04-25 17:47:00,76.6,48.4,30.23,SW,222,1.0,2.0,37,0.00,,,0.00,meteohub,2013-04-25 22:47:00,
2013-04-25 17:52:00,76.5,48.9,30.23,SW,230,2.0,2.0,38,0.00,,,0.00,meteohub,2013-04-25 22:52:00,
2013-04-25 17:57:00,76.5,48.2,30.24,West,264,1.0,2.0,37,0.00,,,0.00,meteohub,2013-04-25 22:57:00,
2013-04-25 18:02:00,76.5,46.8,30.24,NE,45,1.0,2.0,35,0.00,,,0.00,meteohub,2013-04-25 23:02:00,
2013-04-25 18:07:00,76.5,47.5,30.24,East,87,1.0,4.0,36,0.00,,,0.00,meteohub,2013-04-25 23:07:00,
2013-04-25 18:12:00,76.3,47.3,30.23,East,100,0.0,4.0,36,0.00,,,0.00,meteohub,2013-04-25 23:12:00,
2013-04-25 18:17:00,75.9,47.8,30.23,ENE,65,0.0,4.0,37,0.00,,,0.00,meteohub,2013-04-25 23:17:00,
2013-04-25 18:22:00,75.9,48.6,30.24,ENE,65,0.0,2.0,38,0.00,,,0.00,meteohub,2013-04-25 23:22:00,
2013-04-25 18:27:00,75.7,47.7,30.24,ENE,65,1.0,2.0,37,0.00,,,0.00,meteohub,2013-04-25 23:27:00,
2013-04-25 18:32:00,75.6,46.0,30.24,SSE,151,1.0,2.0,35,0.00,,,0.00,meteohub,2013-04-25 23:32:00,
2013-04-25 18:37:00,75.0,46.2,30.24,ESE,119,1.0,1.0,36,0.00,,,0.00,meteohub,2013-04-25 23:37:00,
2013-04-25 18:42:00,74.7,46.6,30.24,ESE,119,0.0,1.0,37,0.00,,,0.00,meteohub,2013-04-25 23:42:00,
2013-04-25 18:47:00,74.1,46.2,30.24,ESE,119,0.0,1.0,37,0.00,,,0.00,meteohub,2013-04-25 23:47:00,
2013-04-25 18:52:00,73.8,45.9,30.24,NE,50,0.0,1.0,37,0.00,,,0.00,meteohub,2013-04-25 23:52:00,
2013-04-25 18:57:00,73.2,44.6,30.24,ENE,64,0.0,1.0,36,0.00,,,0.00,meteohub,2013-04-25 23:57:00,
2013-04-25 19:02:00,72.7,45.7,30.24,ENE,64,0.0,2.0,38,0.00,,,0.00,meteohub,2013-04-26 00:02:00,
2013-04-25 19:07:00,72.1,45.1,30.24,ENE,64,0.0,2.0,38,0.00,,,0.00,meteohub,2013-04-26 00:07:00,
2013-04-25 19:12:00,71.2,45.0,30.24,ENE,66,1.0,2.0,39,0.00,,,0.00,meteohub,2013-04-26 00:12:00,
2013-04-25 19:17:00,70.3,45.0,30.24,ESE,116,0.0,1.0,40,0.00,,,0.00,meteohub,2013-04-26 00:17:00,
2013-04-25 19:22:00,69.4,44.8,30.25,WSW,247,0.0,2.0,41,0.00,,,0.00,meteohub,2013-04-26 00:22:00,
2013-04-25 19:27:00,68.5,44.6,30.25,WSW,247,0.0,2.0,42,0.00,,,0.00,meteohub,2013-04-26 00:27:00,
2013-04-25 19:32:00,68.0,44.1,30.25,WSW,247,0.0,2.0,42,0.00,,,0.00,meteohub,2013-04-26 00:32:00,
2013-04-25 19:37:00,67.5,44.2,30.25,WSW,247,0.0,1.0,43,0.00,,,0.00,meteohub,2013-04-26 00:37:00,
2013-04-25 19:42:00,66.9,45.0,30.25,WSW,247,0.0,1.0,45,0.00,,,0.00,meteohub,2013-04-26 00:42:00,
2013-04-25 19:47:00,66.4,45.0,30.25,WSW,247,0.0,0.0,46,0.00,,,0.00,meteohub,2013-04-26 00:47:00,
2013-04-25 19:52:00,65.8,45.0,30.25,WSW,247,0.0,0.0,47,0.00,,,0.00,meteohub,2013-04-26 00:52:00,
2013-04-25 19:57:00,65.3,45.1,30.25,WSW,247,0.0,0.0,48,0.00,,,0.00,meteohub,2013-04-26 00:57:00,
2013-04-25 20:02:00,64.9,45.9,30.25,WSW,247,0.0,0.0,50,0.00,,,0.00,meteohub,2013-04-26 01:02:00,
2013-04-25 20:07:00,64.6,45.5,30.25,WSW,247,0.0,0.0,50,0.00,,,0.00,meteohub,2013-04-26 01:07:00,
2013-04-25 20:12:00,64.0,45.5,30.25,WSW,247,0.0,0.0,51,0.00,,,0.00,meteohub,2013-04-26 01:12:00,
2013-04-25 20:17:00,63.9,45.9,30.25,WSW,247,0.0,0.0,52,0.00,,,0.00,meteohub,2013-04-26 01:17:00,
2013-04-25 20:22:00,63.3,45.3,30.25,WSW,247,0.0,0.0,52,0.00,,,0.00,meteohub,2013-04-26 01:22:00,
2013-04-25 20:27:00,63.0,45.5,30.25,WSW,247,0.0,0.0,53,0.00,,,0.00,meteohub,2013-04-26 01:27:00,
2013-04-25 20:32:00,62.8,45.9,30.26,WSW,247,0.0,0.0,54,0.00,,,0.00,meteohub,2013-04-26 01:32:00,
2013-04-25 20:37:00,62.2,45.0,30.26,WSW,247,0.0,0.0,53,0.00,,,0.00,meteohub,2013-04-26 01:37:00,
2013-04-25 20:42:00,62.1,45.7,30.26,WSW,247,0.0,0.0,55,0.00,,,0.00,meteohub,2013-04-26 01:42:00,
2013-04-25 20:47:00,61.7,45.0,30.26,WSW,247,0.0,0.0,54,0.00,,,0.00,meteohub,2013-04-26 01:47:00,
2013-04-25 20:52:00,61.3,45.0,30.26,WSW,247,0.0,0.0,55,0.00,,,0.00,meteohub,2013-04-26 01:52:00,
2013-04-25 20:57:00,61.2,45.3,30.27,WSW,247,0.0,0.0,56,0.00,,,0.00,meteohub,2013-04-26 01:57:00,
2013-04-25 21:02:00,60.6,44.8,30.27,WSW,247,0.0,0.0,56,0.00,,,0.00,meteohub,2013-04-26 02:02:00,
2013-04-25 21:07:00,60.4,45.1,30.27,WSW,247,0.0,0.0,57,0.00,,,0.00,meteohub,2013-04-26 02:07:00,
2013-04-25 21:12:00,60.3,45.0,30.27,WSW,247,0.0,0.0,57,0.00,,,0.00,meteohub,2013-04-26 02:12:00,
2013-04-25 21:17:00,60.1,45.3,30.27,WSW,247,0.0,0.0,58,0.00,,,0.00,meteohub,2013-04-26 02:17:00,
2013-04-25 21:22:00,59.7,45.3,30.27,WSW,247,0.0,0.0,59,0.00,,,0.00,meteohub,2013-04-26 02:22:00,
2013-04-25 21:27:00,59.5,45.1,30.28,WSW,247,0.0,0.0,59,0.00,,,0.00,meteohub,2013-04-26 02:27:00,
2013-04-25 21:32:00,59.4,45.5,30.28,WSW,247,0.0,0.0,60,0.00,,,0.00,meteohub,2013-04-26 02:32:00,
2013-04-25 21:37:00,59.2,45.7,30.28,WSW,247,0.0,0.0,61,0.00,,,0.00,meteohub,2013-04-26 02:37:00,
2013-04-25 21:42:00,58.8,45.3,30.28,WSW,247,0.0,0.0,61,0.00,,,0.00,meteohub,2013-04-26 02:42:00,
2013-04-25 21:47:00,58.5,45.1,30.28,WSW,247,0.0,0.0,61,0.00,,,0.00,meteohub,2013-04-26 02:47:00,
2013-04-25 21:52:00,58.3,45.3,30.28,WSW,247,0.0,0.0,62,0.00,,,0.00,meteohub,2013-04-26 02:52:00,
2013-04-25 21:57:00,57.9,45.3,30.28,WSW,247,0.0,0.0,63,0.00,,,0.00,meteohub,2013-04-26 02:57:00,
2013-04-25 22:02:00,57.7,45.7,30.28,WSW,247,0.0,0.0,64,0.00,,,0.00,meteohub,2013-04-26 03:02:00,
2013-04-25 22:07:00,57.6,46.2,30.28,WSW,247,0.0,0.0,66,0.00,,,0.00,meteohub,2013-04-26 03:07:00,
2013-04-25 22:12:00,57.2,45.9,30.28,WSW,247,0.0,0.0,66,0.00,,,0.00,meteohub,2013-04-26 03:12:00,
2013-04-25 22:17:00,56.8,46.0,30.28,WSW,247,0.0,0.0,67,0.00,,,0.00,meteohub,2013-04-26 03:17:00,
2013-04-25 22:22:00,56.8,46.4,30.28,WSW,247,0.0,0.0,68,0.00,,,0.00,meteohub,2013-04-26 03:22:00,
2013-04-25 22:27:00,56.7,46.2,30.28,WSW,247,0.0,0.0,68,0.00,,,0.00,meteohub,2013-04-26 03:27:00,
2013-04-25 22:32:00,56.5,45.7,30.28,WSW,247,0.0,0.0,67,0.00,,,0.00,meteohub,2013-04-26 03:32:00,
2013-04-25 22:37:00,56.1,46.4,30.28,WSW,247,0.0,0.0,70,0.00,,,0.00,meteohub,2013-04-26 03:37:00,
2013-04-25 22:42:00,55.9,45.5,30.28,WSW,247,0.0,0.0,68,0.00,,,0.00,meteohub,2013-04-26 03:42:00,
2013-04-25 22:47:00,55.8,46.0,30.28,WSW,247,0.0,0.0,70,0.00,,,0.00,meteohub,2013-04-26 03:47:00,
2013-04-25 22:52:00,55.4,45.3,30.28,WSW,247,0.0,0.0,69,0.00,,,0.00,meteohub,2013-04-26 03:52:00,
2013-04-25 22:57:00,55.0,44.6,30.28,WSW,247,0.0,0.0,68,0.00,,,0.00,meteohub,2013-04-26 03:57:00,
2013-04-25 23:01:00,54.9,45.3,30.28,WSW,247,0.0,0.0,70,0.00,,,0.00,meteohub,2013-04-26 04:01:00,
2013-04-25 23:02:00,54.9,45.3,30.28,WSW,247,0.0,0.0,70,0.00,,,0.00,meteohub,2013-04-26 04:02:00,
2013-04-25 23:03:00,54.9,45.0,30.28,WSW,247,0.0,0.0,69,0.00,,,0.00,meteohub,2013-04-26 04:03:00,
2013-04-25 23:07:00,54.9,45.3,30.28,WSW,247,0.0,0.0,70,0.00,,,0.00,meteohub,2013-04-26 04:07:00,
2013-04-25 23:12:00,54.7,45.1,30.27,WSW,247,0.0,0.0,70,0.00,,,0.00,meteohub,2013-04-26 04:12:00,
2013-04-25 23:18:00,54.5,44.6,30.27,WSW,247,0.0,0.0,69,0.00,,,0.00,meteohub,2013-04-26 04:18:00,
2013-04-25 23:23:00,54.3,44.4,30.27,WSW,247,0.0,1.0,69,0.00,,,0.00,meteohub,2013-04-26 04:23:00,
2013-04-25 23:28:00,54.5,44.2,30.27,WSW,247,0.0,1.0,68,0.00,,,0.00,meteohub,2013-04-26 04:28:00,
2013-04-25 23:33:00,54.7,43.2,30.28,WNW,298,0.0,2.0,65,0.00,,,0.00,meteohub,2013-04-26 04:33:00,
2013-04-25 23:38:00,54.9,43.0,30.28,NW,316,0.0,2.0,64,0.00,,,0.00,meteohub,2013-04-26 04:38:00,
2013-04-25 23:43:00,55.0,43.2,30.27,NW,313,0.0,2.0,64,0.00,,,0.00,meteohub,2013-04-26 04:43:00,
2013-04-25 23:48:00,55.0,42.6,30.27,NW,313,0.0,2.0,63,0.00,,,0.00,meteohub,2013-04-26 04:48:00,
2013-04-25 23:54:00,55.2,42.4,30.27,WNW,295,0.0,1.0,62,0.00,,,0.00,meteohub,2013-04-26 04:54:00,
2013-04-25 23:59:00,55.2,42.4,30.27,WNW,296,0.0,2.0,62,0.00,,,0.00,meteohub,2013-04-26 04:59:00,